TimeCDT,TemperatureF,Dew PointF,Humidity,Sea Level PressureIn,VisibilityMPH,Wind Direction,Wind SpeedMPH,Gust SpeedMPH,PrecipitationIn,Events,Conditions,WindDirDegrees,DateUTC
12:58 AM,72.9,68.9,87,29.99,10.0,NE,5.8,-,N/A,,Scattered Clouds,50,2013-10-01 05:58:00
1:58 AM,72.0,68.9,90,29.99,10.0,ENE,6.9,-,N/A,,Mostly Cloudy,60,2013-10-01 06:58:00
2:58 AM,71.6,68.7,91,29.98,10.0,ENE,5.8,-,N/A,,Overcast,70,2013-10-01 07:58:00
3:58 AM,71.8,69.1,91,29.98,10.0,East,5.8,-,N/A,,Clear,80,2013-10-01 08:58:00
4:55 AM,71.6,69.8,94,29.97,10.0,East,6.9,-,N/A,,Clear,90,2013-10-01 09:55:00
5:58 AM,71.4,68.7,91,30.00,10.0,NE,4.6,-,N/A,,Mostly Cloudy,40,2013-10-01 10:58:00
6:58 AM,71.4,69.1,92,30.02,10.0,NE,5.8,-,N/A,,Overcast,50,2013-10-01 11:58:00
7:58 AM,74.1,70.2,87,30.04,10.0,East,8.1,-,N/A,,Overcast,90,2013-10-01 12:58:00
8:58 AM,78.8,71.1,77,30.05,10.0,ENE,10.4,-,N/A,,Overcast,70,2013-10-01 13:58:00
9:58 AM,82.4,72.0,71,30.05,10.0,ENE,10.4,-,N/A,,Scattered Clouds,70,2013-10-01 14:58:00
10:43 AM,84.2,71.6,66,30.04,10.0,ENE,8.1,-,N/A,,Mostly Cloudy,70,2013-10-01 15:43:00
10:58 AM,84.4,72.0,66,30.05,10.0,East,8.1,-,N/A,,Mostly Cloudy,100,2013-10-01 15:58:00
11:38 AM,84.2,71.6,66,30.04,10.0,SE,12.7,-,N/A,,Mostly Cloudy,140,2013-10-01 16:38:00
11:58 AM,86.5,71.6,61,30.05,10.0,SE,12.7,-,N/A,,Partly Cloudy,140,2013-10-01 16:58:00
12:58 PM,86.0,71.1,61,30.03,10.0,SSE,12.7,-,N/A,,Clear,150,2013-10-01 17:58:00
1:58 PM,83.8,73.2,70,30.02,10.0,SE,15.0,-,N/A,,Clear,140,2013-10-01 18:58:00
2:58 PM,84.6,70.9,63,30.01,10.0,SSE,16.1,-,N/A,,Clear,150,2013-10-01 19:58:00
3:58 PM,82.4,70.5,67,30.00,10.0,SE,10.4,-,N/A,,Clear,140,2013-10-01 20:58:00
4:58 PM,81.9,69.3,65,30.01,10.0,SE,10.4,-,N/A,,Overcast,140,2013-10-01 21:58:00
5:58 PM,81.5,69.4,67,30.01,10.0,SE,11.5,-,N/A,,Overcast,140,2013-10-01 22:58:00
6:58 PM,80.6,70.5,71,30.00,10.0,ESE,8.1,-,N/A,,Clear,120,2013-10-01 23:58:00
7:58 PM,80.4,69.4,69,30.01,10.0,SE,6.9,-,N/A,,Overcast,130,2013-10-02 00:58:00
8:58 PM,80.1,68.5,68,30.02,10.0,ESE,8.1,-,N/A,,Mostly Cloudy,120,2013-10-02 01:58:00
9:58 PM,76.8,70.5,81,30.04,10.0,NE,5.8,-,N/A,,Overcast,50,2013-10-02 02:58:00
10:58 PM,76.3,70.5,82,30.05,10.0,NE,5.8,-,N/A,,Overcast,50,2013-10-02 03:58:00
11:58 PM,76.1,71.1,84,30.04,10.0,East,4.6,-,N/A,,Overcast,80,2013-10-02 04:58:00